Location: ???????
(55.4362°N, 38.1183°E)
Time: 20:08:57
(UTC+00:00)

M-CUBED/EXP-1 PRIME - Pass Details

Date: 15 December 2021
Orbit: 426 x 650 km, 101.7° (Epoch: 26 January)

Event Time Altitude Azimuth Distance (km) Brightness Sun altitude
Rises 03:37:59 0° 35° (NE) 2,945 ? -16.9°
Reaches altitude 10° 03:41:29 10° 64° (ENE) 1,992 ? -16.4°
Maximum altitude 03:43:24 13° 90° (E) 1,794 ? -16.2°
Drops below altitude 10° 03:45:15 10° 117° (ESE) 1,934 ? -15.9°
Sets 03:48:32 0° 146° (SSE) 2,773 ? -15.5°
